GEFSSGP_con_prob3kmehi_342.txt.gz
EHI
6 2 1 2 1 0 0 0 0 0 0 0 0 0 0 0 0 0 0 1 1 1 2 5 6 6 7 9 9 7 6 6 6 4 5 7 9 8 7 5 4 6 7 7 7 7 6 7 8
2 1 1 2 1 0 0 0 0 0 0 0 0 0 0 0 0 0 1 2 2 1 2 4 6 6 7 8 8 7 6 6 5 4 5 7 7 7 5 3 2 3 5 5 5 6 6 6 7
1 1 2 1 1 1 0 0 0 0 0 0 0 0 0 0 0 0 1 3 2 1 1 3 6 7 6 6 6 6 5 4 4 4 5 6 5 4 3 2 2 3 3 3 4 5 5 5 5
1 3 3 2 2 1 0 0 0 0 1 1 1 0 0 0 1 1 2 3 2 1 0 3 6 6 5 5 5 4 4 4 3 3 4 4 3 2 2 4 6 5 3 4 5 6 6 6 5
3 4 4 3 2 1 0 0 0 0 1 2 1 0 0 1 2 3 3 3 1 0 1 2 4 5 4 4 4 4 4 5 4 3 3 3 2 2 3 5 7 6 5 6 7 7 7 7 7
5 5 4 3 1 0 0 0 0 0 1 1 1 0 1 2 3 3 3 2 1 1 2 2 2 2 3 4 4 3 4 5 5 2 2 3 4 3 3 4 5 5 5 6 7 6 6 7 7
5 4 3 1 0 0 0 0 0 0 0 0 0 0 1 2 3 3 2 1 1 1 1 1 1 0 1 2 2 2 3 4 3 2 2 5 6 5 4 3 4 4 5 5 6 6 5 6 6
4 3 1 0 0 0 0 0 0 0 0 0 0 0 1 3 4 3 2 1 1 1 0 0 0 0 0 1 2 4 4 4 3 2 3 5 5 5 4 3 3 4 4 5 6 5 5 5 5
3 2 0 0 0 0 0 0 0 1 1 1 1 1 2 4 5 5 4 2 1 1 0 0 0 0 0 1 3 5 5 3 3 3 4 4 4 4 4 4 3 4 5 6 6 5 4 4 4
3 2 1 0 0 0 0 0 0 0 0 1 2 2 3 5 5 5 5 3 3 2 1 0 1 1 0 0 1 2 3 2 1 2 4 4 3 3 4 4 3 4 5 5 5 4 3 4 4
3 2 1 0 0 0 0 0 0 0 0 1 3 3 3 4 3 4 4 4 3 3 2 2 2 2 1 0 0 0 1 1 0 1 2 3 3 3 4 4 4 3 4 4 3 3 3 3 3
1 1 0 0 1 1 0 0 0 0 0 2 4 4 3 2 1 2 4 4 3 3 3 3 4 3 2 1 0 0 1 1 1 1 2 3 3 3 3 4 3 3 3 3 3 3 3 3 3
0 0 0 0 1 1 1 1 0 0 2 4 5 4 3 2 1 2 4 5 4 4 4 5 5 4 3 2 0 1 2 2 2 2 3 3 3 3 3 3 3 3 3 3 3 3 3 3 3
0 0 0 0 0 1 2 2 1 2 4 5 4 3 2 2 2 3 4 5 5 5 5 6 6 5 5 4 1 1 2 3 3 3 3 3 3 4 4 3 3 3 3 3 3 3 2 2 2
0 0 0 0 0 1 2 2 1 3 5 5 4 4 4 4 4 4 5 5 6 6 6 6 6 5 5 4 2 1 2 3 3 3 3 3 4 4 5 4 4 3 2 2 2 1 1 1 1
0 0 0 1 1 1 1 1 2 4 5 5 5 6 8 7 7 7 6 5 5 7 7 7 7 5 4 3 2 1 2 4 4 3 3 3 4 4 4 5 5 3 1 1 1 1 0 0 1
0 0 0 1 2 1 0 1 3 4 5 5 5 7 10 12 12 10 7 6 6 6 7 9 9 7 4 3 3 2 2 3 3 2 3 4 4 4 3 3 3 2 1 1 1 1 1 2 3
0 0 0 1 1 1 0 1 2 2 3 3 3 5 10 15 16 13 9 8 8 8 7 8 8 7 5 4 3 2 2 2 1 1 2 4 4 2 1 1 2 3 3 2 2 2 2 3 4
0 0 0 0 1 0 1 2 1 2 2 2 1 3 8 14 18 17 13 11 11 10 9 8 7 7 7 6 5 4 2 1 0 0 1 2 3 1 1 0 1 3 2 1 1 1 1 2 3
0 0 0 0 1 0 1 2 1 1 3 2 1 2 6 13 18 19 17 15 14 13 12 10 8 7 8 8 7 5 3 1 0 0 0 1 2 3 2 1 1 2 1 0 0 0 0 0 1
0 0 0 0 0 0 0 1 1 1 2 3 2 2 5 12 18 20 19 17 16 14 14 13 11 8 7 8 7 6 5 2 2 1 0 1 2 3 3 2 2 2 1 1 1 1 0 0 0
0 0 0 0 0 0 0 0 1 1 2 3 4 3 5 10 17 22 22 20 18 15 14 14 13 10 7 7 8 8 6 4 3 2 1 0 1 2 3 3 4 4 4 3 1 1 0 0 0
0 0 0 0 0 0 0 0 1 2 2 2 4 5 8 12 18 23 24 24 23 19 14 14 15 12 9 9 9 8 7 6 6 4 2 0 0 1 2 4 6 6 6 5 4 2 1 1 1
0 0 0 0 0 0 0 0 1 2 2 2 3 8 13 17 21 23 23 25 27 26 20 17 17 16 14 13 11 8 7 7 8 7 4 2 1 1 3 5 7 7 7 7 7 6 4 2 2
0 0 0 0 0 0 0 0 0 1 2 3 5 10 18 22 23 22 21 23 28 30 29 25 23 22 20 17 13 10 8 8 8 9 8 5 3 4 6 7 7 8 8 9 9 8 6 3 2
0 0 0 0 0 0 0 0 1 3 5 7 8 13 20 23 21 20 20 22 26 30 33 33 30 29 26 21 15 12 11 9 8 10 10 7 6 7 8 9 9 8 9 9 8 7 6 4 3
0 0 0 0 0 0 0 0 1 3 6 10 12 14 18 19 17 17 18 20 22 27 33 35 35 34 31 25 18 15 14 12 9 10 10 8 8 10 10 10 9 8 7 7 7 7 6 5 4
0 0 0 0 0 0 0 0 0 1 4 8 11 13 14 14 14 16 17 18 20 26 32 35 36 36 34 28 22 18 16 14 13 13 12 10 10 12 12 11 8 7 6 6 6 6 6 6 5
0 0 0 0 0 0 0 0 1 1 3 6 8 10 10 10 12 17 20 21 24 29 33 36 37 38 36 31 25 21 18 16 16 17 16 15 14 14 14 12 9 7 6 6 6 6 6 6 6
0 0 0 0 0 0 0 1 2 3 4 6 6 8 9 9 12 19 24 26 29 34 37 38 38 39 37 33 27 22 19 17 17 19 19 18 17 16 15 13 9 7 6 6 6 6 6 7 7

GEFSSGP_con_prob3kmehi_348.txt.gz
EHI
4 3 1 0 0 0 0 0 0 0 0 0 0 0 0 0 0 0 0 0 0 0 1 4 6 6 6 6 6 7 8 7 6 5 6 6 4 3 4 5 6 6 6 5 3 1 0 0 0
2 1 0 0 0 0 0 0 0 0 0 0 0 0 0 0 0 0 0 1 1 0 1 4 6 6 6 5 4 5 7 7 6 6 6 5 4 3 4 4 6 7 6 4 2 1 0 0 0
0 0 0 0 0 0 0 0 0 0 0 0 0 0 0 0 0 0 1 2 2 1 1 3 6 6 4 3 2 3 6 6 6 6 6 5 3 3 3 3 5 6 5 3 1 0 1 1 1
1 1 0 0 0 0 0 0 0 0 0 0 0 0 0 0 0 1 2 3 3 2 1 3 5 6 3 2 1 2 4 6 6 6 6 5 4 3 3 3 5 7 5 3 2 1 1 2 2
0 0 0 0 0 0 0 0 0 0 0 0 0 0 0 0 1 2 3 3 3 3 2 2 5 7 5 2 0 0 2 4 5 5 6 6 5 5 4 3 5 6 4 3 2 1 1 4 5
0 0 0 0 0 0 0 0 0 0 0 0 0 0 0 1 2 3 3 3 3 3 2 2 5 7 7 4 1 1 1 2 3 3 5 6 6 6 5 4 4 4 3 2 1 1 2 4 6
0 0 0 0 0 0 0 0 0 0 0 0 0 0 0 1 2 3 3 2 3 3 3 2 4 6 6 5 2 1 1 2 3 3 3 4 4 5 6 6 4 4 3 2 2 2 3 4 5
0 0 0 0 0 0 0 0 0 0 0 0 0 0 0 0 2 3 3 3 3 3 3 3 3 4 4 3 1 1 2 3 5 4 2 1 2 3 5 6 5 5 4 3 3 3 3 4 5
0 0 0 0 0 0 0 1 1 0 0 0 0 0 0 1 2 3 3 3 3 3 3 3 3 3 2 1 0 1 2 3 3 3 2 1 1 2 4 5 4 4 5 4 4 4 4 4 4
0 0 0 0 0 0 0 1 2 1 0 0 0 0 1 1 2 3 3 3 3 3 3 3 3 3 2 1 1 1 1 1 1 1 1 0 0 1 3 4 3 4 5 5 5 5 4 3 3
0 0 0 0 0 0 0 1 2 1 0 0 0 2 3 2 1 1 2 3 3 3 3 3 3 3 3 3 2 2 2 1 0 0 0 0 0 1 2 3 3 4 5 5 4 3 3 2 2
0 0 0 1 1 0 0 0 1 1 0 0 1 3 5 4 1 0 1 2 2 3 3 3 3 3 3 3 3 3 3 2 1 0 0 1 1 1 3 3 3 3 3 3 2 2 1 1 2
0 0 0 1 1 0 0 0 0 0 0 1 3 5 6 4 1 0 0 1 2 3 3 3 3 3 3 3 3 3 3 3 2 0 0 1 1 3 4 4 3 2 1 1 2 1 0 0 1
1 1 0 0 0 0 0 0 0 0 0 1 3 4 4 3 1 0 0 1 3 3 3 3 3 3 3 3 3 3 3 3 2 0 0 1 2 4 4 4 2 1 1 1 2 1 0 0 1
1 1 0 0 0 0 0 0 0 0 0 1 1 2 3 2 1 0 0 2 3 3 3 3 4 3 3 3 3 3 3 2 1 0 0 1 3 3 3 2 1 0 0 1 1 1 1 1 2
1 0 0 0 0 0 0 0 0 0 0 0 0 1 1 1 1 0 0 1 3 3 3 4 5 4 4 4 3 3 2 1 1 0 0 1 2 2 2 1 0 0 0 0 1 1 2 2 3
0 0 0 0 0 0 0 0 0 1 1 1 1 2 2 1 1 0 0 1 2 3 3 4 5 6 5 5 3 2 1 0 0 0 0 1 1 1 1 0 0 0 0 0 0 1 1 1 2
0 0 0 0 0 0 0 0 0 1 2 1 1 2 3 2 1 0 1 1 3 3 3 3 4 5 5 4 3 2 1 1 1 1 1 0 0 1 1 0 0 0 1 1 1 1 0 1 2
0 0 0 0 0 0 0 0 0 1 1 1 0 1 3 3 2 2 2 3 3 3 3 3 3 4 3 3 3 3 2 2 2 2 2 1 0 1 1 0 0 0 1 2 2 1 0 0 1
0 0 0 0 0 0 0 0 0 0 0 0 0 1 2 3 3 3 3 3 3 3 3 3 3 3 1 1 2 3 3 3 2 2 2 2 2 1 1 0 0 0 1 1 2 1 1 0 0
0 0 0 0 0 0 0 0 0 0 0 0 0 0 1 3 4 4 4 3 3 3 3 3 3 2 1 1 1 2 2 2 2 2 3 3 3 3 2 1 0 0 0 0 0 1 1 0 0
0 0 0 0 0 0 0 0 0 0 0 0 1 1 1 2 4 5 4 3 3 3 3 3 3 1 1 2 2 3 3 3 3 3 3 3 4 3 3 2 1 0 0 0 0 0 0 0 0
0 0 0 0 0 0 0 0 0 0 0 0 0 1 1 2 4 5 5 4 3 3 3 3 3 1 1 2 3 3 3 4 4 4 3 3 3 3 3 2 1 1 1 1 0 0 0 0 0
0 0 0 0 0 0 0 0 0 0 0 0 0 0 1 2 3 5 7 6 4 3 4 3 3 3 2 3 3 3 4 4 5 4 3 3 3 3 2 1 1 2 3 2 1 1 0 0 0
0 0 0 0 0 0 0 0 0 0 0 0 0 0 1 2 3 5 7 7 6 5 5 4 4 4 4 4 3 4 5 6 6 5 5 4 4 4 4 4 4 4 4 3 3 2 1 0 0
0 0 0 0 0 0 0 0 0 0 0 0 0 0 1 3 5 6 6 8 8 7 7 6 4 5 5 4 3 4 7 7 7 7 7 8 7 7 8 8 7 6 5 4 3 2 1 0 0
0 0 0 0 0 0 0 0 0 0 0 0 0 0 0 3 5 6 5 7 8 7 7 6 5 5 5 3 3 4 6 9 9 8 9 10 10 9 10 10 9 7 6 5 4 2 1 1 0
0 0 0 0 0 0 0 0 0 0 0 1 1 1 1 2 4 5 4 5 6 6 6 6 6 6 5 4 3 3 6 9 10 9 9 9 9 9 10 10 9 7 7 6 5 3 2 2 1
0 0 0 0 0 0 0 0 0 0 0 1 2 1 1 3 5 5 5 6 6 8 9 8 7 7 7 6 4 4 6 10 11 9 8 7 8 9 10 11 10 9 7 6 4 3 3 3 3
0 0 0 0 0 0 0 0 0 0 0 0 1 1 1 2 4 6 8 8 8 10 12 11 7 7 8 8 6 5 7 11 13 10 7 6 6 9 11 11 10 9 8 6 4 3 4 4 4

GEFSSGP_con_prob3kmehi_354.txt.gz
EHI
2 2 4 6 5 2 0 0 0 0 0 0 0 0 0 0 0 0 0 0 1 4 7 8 7 6 6 4 3 3 2 2 3 3 2 2 2 1 1 1 0 0 0 0 0 0 0 0 0
2 3 6 8 4 1 0 0 0 0 0 0 0 0 0 0 0 0 1 1 1 3 5 7 7 6 6 4 3 2 1 2 3 3 3 3 2 2 2 1 1 1 1 0 0 0 0 0 0
2 5 9 8 3 0 0 0 0 0 0 0 0 0 0 0 0 1 2 2 1 1 4 7 8 7 6 5 3 1 0 2 4 4 3 4 4 3 3 2 1 2 1 0 0 0 1 1 0
4 7 9 5 1 0 0 0 0 0 0 0 0 0 0 0 0 1 2 3 2 2 5 8 8 8 7 5 2 0 1 3 6 5 4 5 5 4 3 2 3 3 2 1 0 1 2 2 1
6 6 5 2 0 0 0 0 0 0 0 0 0 0 0 0 0 1 3 3 3 3 5 7 8 7 6 4 2 1 2 4 6 5 4 4 5 4 2 2 3 4 3 2 1 1 3 3 3
6 5 2 0 0 0 0 0 0 0 0 0 0 0 0 0 1 2 3 3 3 3 4 6 6 6 5 3 2 2 3 4 5 6 5 4 4 3 2 3 4 5 4 3 2 3 3 3 3
4 3 1 0 0 0 0 0 0 0 0 0 0 0 0 0 1 3 3 3 3 3 3 4 4 5 4 3 2 2 3 4 4 5 6 5 4 3 3 5 7 6 4 3 3 3 3 3 3
3 2 1 0 0 0 0 0 0 0 0 0 0 0 0 1 2 3 3 3 3 3 3 3 3 4 3 3 1 1 2 3 3 4 5 5 4 3 3 5 7 6 4 3 3 3 3 3 3
1 1 1 0 0 0 0 0 0 0 0 0 0 0 1 2 3 3 3 3 3 3 3 3 3 3 3 2 1 0 1 1 2 3 4 4 3 2 1 3 4 4 3 3 3 3 3 3 3
0 0 0 0 0 0 0 0 0 0 0 0 0 0 1 3 3 3 3 3 3 3 3 3 3 3 3 1 1 1 1 1 1 3 4 4 2 1 1 3 5 5 4 4 3 3 3 3 3
0 0 0 0 0 0 0 0 0 0 0 0 1 3 3 3 3 3 1 1 2 3 3 3 3 3 3 2 2 3 3 3 3 4 5 4 3 2 3 5 7 7 6 5 4 4 3 3 3
1 0 0 0 0 0 0 0 0 0 0 0 3 6 7 4 3 3 1 0 1 2 3 3 3 3 4 3 3 4 4 5 5 5 6 5 5 5 5 6 8 10 10 7 5 4 4 3 3
2 1 1 0 0 0 0 0 0 0 0 1 4 8 8 5 3 3 2 1 1 2 3 3 3 4 5 5 4 4 4 5 5 5 6 6 6 6 6 8 9 11 11 10 7 5 3 3 2
3 2 2 1 0 0 0 0 0 0 0 2 4 7 7 4 2 3 3 2 2 2 3 3 3 4 6 7 5 4 4 4 4 4 5 6 6 5 6 9 10 10 10 10 8 6 4 4 3
2 2 1 1 1 0 0 0 0 0 1 2 3 5 5 4 2 2 3 3 3 3 3 3 3 4 7 8 7 4 3 4 4 4 4 4 4 5 6 7 8 8 8 9 8 7 6 5 5
1 1 0 1 1 0 0 0 0 1 2 2 2 4 4 3 1 1 1 2 3 4 4 4 4 4 6 8 7 4 3 3 4 3 3 3 4 5 7 7 6 6 7 7 7 8 7 6 6
0 0 0 0 0 0 0 0 0 2 3 3 4 4 4 2 1 0 0 1 4 5 5 5 5 5 6 8 8 7 5 3 3 3 2 2 4 6 8 8 7 6 6 5 6 8 8 8 7
0 0 0 0 0 0 0 0 0 2 3 4 6 6 4 3 1 0 0 1 4 6 7 7 8 8 8 10 10 8 6 5 4 4 2 2 3 5 7 7 7 6 5 6 6 7 9 9 9
0 0 0 0 0 0 0 0 0 1 3 4 6 8 7 6 3 1 1 1 4 7 9 10 10 11 11 12 11 9 6 5 5 4 3 2 2 3 5 6 6 6 5 5 6 7 7 8 8
0 0 0 0 0 0 0 0 0 1 1 2 4 6 7 8 7 6 5 5 6 8 10 11 12 13 13 12 11 9 6 4 3 2 2 2 1 2 4 5 6 6 5 5 6 7 7 7 7
0 0 0 0 0 0 0 0 0 0 0 0 1 3 5 8 10 12 11 11 11 10 8 9 11 13 13 12 10 9 7 4 2 1 1 1 1 1 2 4 5 6 5 5 5 7 7 6 5
0 0 0 0 0 0 0 0 0 1 0 0 1 2 4 6 9 12 13 14 14 11 7 7 11 14 14 12 11 10 8 5 3 2 1 0 0 1 1 2 5 6 5 5 5 6 7 6 4
0 0 0 0 0 0 0 0 0 0 0 1 2 4 5 5 6 8 10 12 12 11 9 10 13 15 16 15 13 13 11 8 6 4 2 1 1 1 1 3 6 7 7 7 7 7 8 7 5
0 0 0 0 0 0 0 0 0 0 0 1 4 6 7 6 6 8 9 10 11 12 14 15 16 17 20 20 18 16 14 12 10 6 4 3 3 3 4 5 8 10 10 10 10 10 10 10 9
0 0 0 0 0 0 0 0 0 0 2 3 5 6 8 9 9 10 10 10 10 12 14 15 17 19 23 26 24 19 16 13 10 8 7 7 6 6 8 9 10 12 12 12 12 12 12 12 12
0 0 0 0 0 0 0 0 0 2 4 5 6 6 8 10 11 11 11 10 10 10 11 12 13 16 21 27 29 25 18 12 9 9 9 10 9 10 12 13 13 13 13 13 14 14 14 13 13
0 0 0 0 0 0 0 0 0 2 5 7 7 6 7 9 10 10 9 9 9 9 8 9 10 13 17 22 27 25 20 14 11 11 11 10 10 12 15 17 16 14 13 13 14 14 13 13 13
0 0 0 0 0 0 0 0 0 2 5 6 6 7 7 7 8 9 9 9 9 9 9 11 14 17 17 19 20 19 17 15 14 15 13 12 12 13 15 17 17 14 12 13 14 12 10 11 13
0 0 0 0 0 0 0 0 0 2 3 3 4 5 7 8 10 12 12 10 10 10 12 15 19 21 21 19 18 16 15 14 15 18 19 18 17 16 16 17 17 15 13 13 13 12 10 10 12
0 0 0 0 0 0 0 0 0 1 1 1 2 4 7 11 14 16 15 13 11 11 13 17 19 21 21 20 19 18 16 14 16 19 22 22 21 19 17 16 17 17 15 14 13 13 11 11 12

GEFSSGP_con_prob3kmehi_360.txt.gz
EHI
4 7 15 21 17 8 2 0 0 0 0 0 0 0 0 0 0 1 1 3 8 9 6 5 6 5 4 3 3 2 3 2 1 0 1 2 2 1 1 2 3 3 3 3 1 0 1 4 6
5 10 18 19 13 5 1 0 0 0 0 0 0 0 0 0 0 1 2 3 7 8 6 5 5 5 4 4 3 2 3 2 1 0 1 1 1 0 0 1 1 2 3 3 2 1 1 3 5
8 14 20 17 7 1 0 0 0 0 0 0 0 0 0 0 0 1 2 4 7 7 6 6 5 5 6 5 3 2 2 2 1 0 0 0 0 0 0 0 0 1 2 3 2 1 1 1 2
14 19 22 14 4 0 0 0 0 0 0 0 0 0 0 0 0 1 3 5 7 7 8 8 7 6 5 4 2 1 1 1 1 0 0 0 0 0 0 0 0 1 1 1 2 2 2 1 1
19 21 20 11 2 0 0 0 0 0 0 0 0 0 0 0 0 2 5 7 8 8 10 12 12 10 7 3 1 1 2 2 2 1 0 0 0 0 0 0 0 1 2 1 1 2 2 1 1
19 19 15 6 1 0 0 0 0 0 0 0 0 0 0 0 0 1 5 8 9 9 11 12 13 13 9 5 2 2 3 3 3 3 2 1 1 1 1 1 1 2 2 1 1 2 2 3 3
16 15 10 3 0 0 0 0 0 0 0 0 0 0 0 1 1 2 4 8 9 9 8 8 9 10 9 8 6 4 4 4 4 5 5 5 4 4 5 4 4 4 3 3 3 4 5 5 6
11 10 6 2 0 0 0 0 0 0 0 0 0 0 1 2 3 3 4 6 7 6 5 4 4 6 7 7 6 6 5 5 6 6 6 7 7 8 9 9 8 7 6 5 5 6 7 7 7
7 6 3 1 0 0 0 0 0 0 0 0 0 2 3 3 4 3 4 5 5 5 5 5 5 5 5 5 5 5 6 6 6 6 6 7 8 11 12 12 12 11 9 7 6 7 8 8 8
4 2 1 0 0 0 0 0 0 0 0 0 2 5 6 4 3 2 2 4 4 5 5 6 6 5 4 4 4 4 4 5 5 6 7 8 9 11 12 13 15 15 12 9 8 8 9 9 8
1 0 0 0 0 0 0 0 0 0 0 1 4 7 7 5 3 2 1 2 3 4 5 5 5 5 4 5 5 3 4 5 6 7 9 10 10 11 12 13 15 14 12 10 9 9 8 7 7
0 0 0 0 0 0 0 0 0 0 0 2 5 6 5 4 4 2 1 1 2 3 4 5 6 6 6 6 7 5 5 7 8 9 10 10 11 11 12 13 12 11 11 11 9 8 7 6 5
0 1 1 1 0 0 0 0 0 0 0 2 4 4 2 3 4 3 2 2 3 4 5 5 8 11 12 12 9 8 8 8 9 10 9 8 9 11 12 12 11 11 12 12 9 7 6 5 4
1 1 2 1 0 0 0 0 0 1 1 2 4 4 1 1 3 4 4 4 4 5 6 7 10 16 19 16 12 10 9 8 8 8 9 8 8 11 13 13 12 11 13 14 12 10 8 6 5
0 1 1 0 0 0 0 1 1 2 3 5 6 5 3 3 3 4 6 6 5 5 8 8 10 16 20 16 12 10 9 8 8 9 9 9 10 13 15 14 13 12 13 15 14 12 10 6 4
0 0 0 0 0 1 1 2 3 4 5 7 7 6 6 7 7 5 6 9 10 10 12 11 10 13 17 16 13 10 9 8 9 10 10 10 11 14 16 13 12 13 13 13 12 11 11 8 6
0 0 0 0 1 1 1 2 3 4 6 6 6 6 7 10 10 9 9 13 18 21 22 20 16 15 16 16 14 10 8 9 9 10 12 13 13 15 17 15 13 13 14 12 9 11 13 11 9
0 0 0 0 1 0 0 1 1 3 5 5 4 4 6 9 11 12 13 18 25 32 33 30 27 24 20 16 13 10 8 9 10 12 16 18 16 17 18 16 14 14 14 13 9 10 13 13 11
0 0 0 0 0 0 0 0 1 3 4 4 3 2 4 8 12 16 19 22 30 39 40 38 36 34 28 22 17 12 9 9 10 13 19 21 18 16 16 13 13 13 14 15 12 11 12 11 11
0 0 0 0 0 0 0 0 1 2 3 3 3 2 4 8 15 21 25 28 33 40 42 40 41 40 35 30 25 17 12 10 9 13 20 21 16 14 13 13 12 12 13 15 15 14 12 10 10
0 0 0 0 0 0 0 0 1 2 3 4 4 3 4 9 14 20 26 29 33 37 39 40 43 42 38 33 26 19 15 13 13 17 22 22 17 15 14 15 15 12 12 14 15 15 13 11 10
0 0 0 0 0 0 0 0 2 3 5 5 6 6 7 10 14 19 25 29 31 33 36 40 43 43 40 33 25 19 17 17 19 23 25 25 23 20 17 17 18 16 14 14 14 14 14 12 11
0 0 0 0 0 0 0 0 1 4 6 7 7 8 9 12 15 19 25 29 29 30 34 40 46 47 43 37 29 22 18 18 20 24 28 29 29 27 22 19 20 19 17 16 14 15 15 13 10
0 0 0 0 0 0 0 0 1 3 6 8 9 10 11 12 14 19 25 29 30 29 34 42 47 49 47 42 35 27 23 20 20 23 28 30 30 28 25 23 23 22 21 19 18 18 17 14 10
0 0 0 0 0 0 0 0 1 4 6 8 10 12 13 12 14 17 23 28 30 31 36 44 48 49 48 44 39 34 29 25 23 23 26 27 27 28 27 26 26 25 24 23 23 22 19 15 12
0 0 0 0 0 0 0 0 2 5 6 6 9 13 15 15 15 17 22 27 29 31 37 45 49 49 47 45 42 40 36 31 27 26 25 27 29 30 31 31 29 27 26 26 27 25 22 17 14
0 0 0 0 0 0 0 1 3 6 6 5 8 12 16 17 17 19 23 26 28 30 35 43 49 50 47 44 42 41 39 36 34 31 27 28 30 32 35 36 33 31 28 27 28 28 26 21 16
0 0 0 0 0 0 0 1 4 6 6 6 7 11 15 18 19 21 26 28 27 27 32 40 46 48 46 43 40 39 40 40 39 36 31 28 29 31 35 37 35 33 31 29 28 29 29 25 20
0 0 0 0 0 0 0 1 3 6 6 6 6 9 12 16 19 23 27 29 27 25 30 37 42 45 45 44 41 40 43 44 42 39 35 31 28 31 34 34 32 31 30 29 28 28 29 28 25
0 0 0 0 0 0 0 1 3 6 5 4 5 6 10 14 18 22 26 28 27 26 29 35 40 43 45 45 43 42 43 45 42 40 38 33 29 30 32 32 30 29 28 28 26 26 28 29 29